Year,Month,Day,Hour,Minute,Value (Times are PST for temperature in C)
2006,04,16,00,00,4.60
2006,04,16,00,01,4.60
2006,04,16,00,02,4.60
2006,04,16,00,03,4.60
2006,04,16,00,04,4.60
2006,04,16,00,05,4.60
2006,04,16,00,06,4.50
2006,04,16,00,07,4.50
2006,04,16,00,08,4.50
2006,04,16,00,09,4.50
2006,04,16,00,10,4.50
2006,04,16,00,11,4.50
2006,04,16,00,12,4.50
2006,04,16,00,13,4.50
2006,04,16,00,14,4.50
2006,04,16,00,15,4.60
2006,04,16,00,16,4.60
2006,04,16,00,17,4.60
2006,04,16,00,18,4.60
2006,04,16,00,19,4.60
2006,04,16,00,20,4.50
2006,04,16,00,21,4.50
2006,04,16,00,22,4.50
2006,04,16,00,23,4.50
2006,04,16,00,24,4.50
2006,04,16,00,25,4.50
2006,04,16,00,26,4.50
2006,04,16,00,27,4.50
2006,04,16,00,28,4.50
2006,04,16,00,29,4.50
2006,04,16,00,30,4.50
2006,04,16,00,31,4.40
2006,04,16,00,32,4.40
2006,04,16,00,33,4.40
2006,04,16,00,34,4.40
2006,04,16,00,35,4.40
2006,04,16,00,36,4.30
2006,04,16,00,37,4.30
2006,04,16,00,38,4.30
2006,04,16,00,39,4.30
2006,04,16,00,40,4.20
2006,04,16,00,41,4.20
2006,04,16,00,42,4.20
2006,04,16,00,43,4.20
2006,04,16,00,44,4.20
2006,04,16,00,45,4.20
2006,04,16,00,46,4.20
2006,04,16,00,47,4.20
2006,04,16,00,48,4.20
2006,04,16,00,49,4.20
2006,04,16,00,50,4.20
2006,04,16,00,51,4.20
2006,04,16,00,52,4.20
2006,04,16,00,53,4.20
2006,04,16,00,54,4.20
2006,04,16,00,55,4.20
2006,04,16,00,56,4.20
2006,04,16,00,57,4.20
2006,04,16,00,58,4.20
2006,04,16,00,59,4.20
2006,04,16,01,00,4.20
2006,04,16,01,01,4.10
2006,04,16,01,02,4.10
2006,04,16,01,03,4.10
2006,04,16,01,04,4.10
2006,04,16,01,05,4.10
2006,04,16,01,06,4.10
2006,04,16,01,07,4.10
2006,04,16,01,08,4.10
2006,04,16,01,09,4.20
2006,04,16,01,10,4.20
2006,04,16,01,11,4.20
2006,04,16,01,12,4.20
2006,04,16,01,13,4.20
2006,04,16,01,14,4.20
2006,04,16,01,15,4.20
2006,04,16,01,16,4.20
2006,04,16,01,17,4.20
2006,04,16,01,18,4.20
2006,04,16,01,19,4.20
2006,04,16,01,20,4.20
2006,04,16,01,21,4.20
2006,04,16,01,22,4.20
2006,04,16,01,23,4.20
2006,04,16,01,24,4.20
2006,04,16,01,25,4.20
2006,04,16,01,26,4.20
2006,04,16,01,27,4.20
2006,04,16,01,28,4.20
2006,04,16,01,29,4.20
2006,04,16,01,30,4.20
2006,04,16,01,31,4.20
2006,04,16,01,32,4.20
2006,04,16,01,33,4.20
2006,04,16,01,34,4.20
2006,04,16,01,35,4.20
2006,04,16,01,36,4.20
2006,04,16,01,37,4.20
2006,04,16,01,38,4.20
2006,04,16,01,39,4.20
2006,04,16,01,40,4.20
2006,04,16,01,41,4.20
2006,04,16,01,42,4.20
2006,04,16,01,43,4.20
2006,04,16,01,44,4.30
2006,04,16,01,45,4.30
2006,04,16,01,46,4.30
2006,04,16,01,47,4.30
2006,04,16,01,48,4.30
2006,04,16,01,49,4.30
2006,04,16,01,50,4.40
2006,04,16,01,51,4.40
2006,04,16,01,52,4.40
2006,04,16,01,53,4.40
2006,04,16,01,54,4.40
2006,04,16,01,55,4.40
2006,04,16,01,56,4.40
2006,04,16,01,57,4.40
2006,04,16,01,58,4.30
2006,04,16,01,59,4.30
2006,04,16,02,00,4.30
2006,04,16,02,01,4.30
2006,04,16,02,02,4.30
2006,04,16,02,03,4.30
2006,04,16,02,04,4.30
2006,04,16,02,05,4.30
2006,04,16,02,06,4.20
2006,04,16,02,07,4.20
2006,04,16,02,08,4.20
2006,04,16,02,09,4.20
2006,04,16,02,10,4.20
2006,04,16,02,11,4.20
2006,04,16,02,12,4.20
2006,04,16,02,13,4.20
2006,04,16,02,14,4.20
2006,04,16,02,15,4.20
2006,04,16,02,16,4.20
2006,04,16,02,17,4.20
2006,04,16,02,18,4.20
2006,04,16,02,19,4.20
2006,04,16,02,20,4.20
2006,04,16,02,21,4.20
2006,04,16,02,22,4.20
2006,04,16,02,23,4.20
2006,04,16,02,24,4.20
2006,04,16,02,25,4.20
2006,04,16,02,26,4.20
2006,04,16,02,27,4.20
2006,04,16,02,28,4.20
2006,04,16,02,29,4.20
2006,04,16,02,30,4.20
2006,04,16,02,31,4.20
2006,04,16,02,32,4.20
2006,04,16,02,33,4.20
2006,04,16,02,34,4.20
2006,04,16,02,35,4.20
2006,04,16,02,36,4.20
2006,04,16,02,37,4.20
2006,04,16,02,38,4.20
2006,04,16,02,39,4.20
2006,04,16,02,40,4.20
2006,04,16,02,41,4.20
2006,04,16,02,42,4.20
2006,04,16,02,43,4.20
2006,04,16,02,44,4.20
2006,04,16,02,45,4.20
2006,04,16,02,46,4.20
2006,04,16,02,47,4.20
2006,04,16,02,48,4.20
2006,04,16,02,49,4.20
2006,04,16,02,50,4.20
2006,04,16,02,51,4.20
2006,04,16,02,52,4.20
2006,04,16,02,53,4.20
2006,04,16,02,54,4.10
2006,04,16,02,55,4.10
2006,04,16,02,56,4.10
2006,04,16,02,57,4.10
2006,04,16,02,58,4.10
2006,04,16,02,59,4.10
2006,04,16,03,00,4.10
2006,04,16,03,01,4.10
2006,04,16,03,02,4.10
2006,04,16,03,03,4.10
2006,04,16,03,04,4.10
2006,04,16,03,05,4.10
2006,04,16,03,06,4.10
2006,04,16,03,07,4.10
2006,04,16,03,08,4.10
2006,04,16,03,09,4.10
2006,04,16,03,10,4.10
2006,04,16,03,11,4.10
2006,04,16,03,12,4.10
2006,04,16,03,13,4.10
2006,04,16,03,14,4.10
2006,04,16,03,15,4.10
2006,04,16,03,16,4.10
2006,04,16,03,17,4.10
2006,04,16,03,18,4.10
2006,04,16,03,19,4.10
2006,04,16,03,20,4.10
2006,04,16,03,21,4.10
2006,04,16,03,22,4.10
2006,04,16,03,23,4.10
2006,04,16,03,24,4.10
2006,04,16,03,25,4.10
2006,04,16,03,26,4.10
2006,04,16,03,27,4.00
2006,04,16,03,28,4.00
2006,04,16,03,29,4.00
2006,04,16,03,30,4.00
2006,04,16,03,31,4.00
2006,04,16,03,32,4.00
2006,04,16,03,33,4.00
2006,04,16,03,34,4.00
2006,04,16,03,35,4.00
2006,04,16,03,36,3.90
2006,04,16,03,37,3.90
2006,04,16,03,38,3.90
2006,04,16,03,39,3.90
2006,04,16,03,40,3.90
2006,04,16,03,41,4.00
2006,04,16,03,42,4.00
2006,04,16,03,43,4.10
2006,04,16,03,44,4.20
2006,04,16,03,45,4.20
2006,04,16,03,46,4.30
2006,04,16,03,47,4.30
2006,04,16,03,48,4.40
2006,04,16,03,49,4.50
2006,04,16,03,50,4.50
2006,04,16,03,51,4.60
2006,04,16,03,52,4.60
2006,04,16,03,53,4.60
2006,04,16,03,54,4.60
2006,04,16,03,55,4.60
2006,04,16,03,56,4.60
2006,04,16,03,57,4.60
2006,04,16,03,58,4.60
2006,04,16,03,59,4.60
2006,04,16,04,00,4.60
2006,04,16,04,01,4.60
2006,04,16,04,02,4.60
2006,04,16,04,03,4.60
2006,04,16,04,04,4.60
2006,04,16,04,05,4.60
2006,04,16,04,06,4.60
2006,04,16,04,07,4.60
2006,04,16,04,08,4.60
2006,04,16,04,09,4.60
2006,04,16,04,10,4.60
2006,04,16,04,11,4.60
2006,04,16,04,12,4.60
2006,04,16,04,13,4.60
2006,04,16,04,14,4.60
2006,04,16,04,15,4.60
2006,04,16,04,16,4.60
2006,04,16,04,17,4.60
2006,04,16,04,18,4.60
2006,04,16,04,19,4.60
2006,04,16,04,20,4.60
2006,04,16,04,21,4.60
2006,04,16,04,22,4.60
2006,04,16,04,23,4.60
2006,04,16,04,24,4.60
2006,04,16,04,25,4.60
2006,04,16,04,26,4.60
2006,04,16,04,27,4.60
2006,04,16,04,28,4.60
2006,04,16,04,29,4.60
2006,04,16,04,30,4.60
2006,04,16,04,31,4.60
2006,04,16,04,32,4.50
2006,04,16,04,33,4.50
2006,04,16,04,34,4.50
2006,04,16,04,35,4.50
2006,04,16,04,36,4.40
2006,04,16,04,37,4.40
2006,04,16,04,38,4.40
2006,04,16,04,39,4.40
2006,04,16,04,40,4.40
2006,04,16,04,41,4.30
2006,04,16,04,42,4.30
2006,04,16,04,43,4.30
2006,04,16,04,44,4.30
2006,04,16,04,45,4.20
2006,04,16,04,46,4.20
2006,04,16,04,47,4.20
2006,04,16,04,48,4.20
2006,04,16,04,49,4.20
2006,04,16,04,50,4.20
2006,04,16,04,51,4.20
2006,04,16,04,52,4.20
2006,04,16,04,53,4.20
2006,04,16,04,54,4.20
2006,04,16,04,55,4.20
2006,04,16,04,56,4.20
2006,04,16,04,57,4.20
2006,04,16,04,58,4.20
2006,04,16,04,59,4.30
2006,04,16,05,00,4.30
2006,04,16,05,01,4.30
2006,04,16,05,02,4.40
2006,04,16,05,03,4.40
2006,04,16,05,04,4.40
2006,04,16,05,05,4.50
2006,04,16,05,06,4.50
2006,04,16,05,07,4.60
2006,04,16,05,08,4.60
2006,04,16,05,09,4.70
2006,04,16,05,10,4.70
2006,04,16,05,11,4.70
2006,04,16,05,12,4.70
2006,04,16,05,13,4.80
2006,04,16,05,14,4.90
2006,04,16,05,15,4.90
2006,04,16,05,16,4.90
2006,04,16,05,17,4.90
2006,04,16,05,18,4.90
2006,04,16,05,19,4.90
2006,04,16,05,20,5.00
2006,04,16,05,21,5.10
2006,04,16,05,22,5.10
2006,04,16,05,23,5.10
2006,04,16,05,24,5.10
2006,04,16,05,25,5.10
2006,04,16,05,26,5.10
2006,04,16,05,27,5.10
2006,04,16,05,28,5.10
2006,04,16,05,29,5.10
2006,04,16,05,30,5.10
2006,04,16,05,31,5.10
2006,04,16,05,32,5.10
2006,04,16,05,33,5.10
2006,04,16,05,34,5.10
2006,04,16,05,35,5.10
2006,04,16,05,36,5.10
2006,04,16,05,37,5.10
2006,04,16,05,38,5.10
2006,04,16,05,39,5.10
2006,04,16,05,40,5.10
2006,04,16,05,41,5.10
2006,04,16,05,42,5.10
2006,04,16,05,43,5.20
2006,04,16,05,44,5.20
2006,04,16,05,45,5.20
2006,04,16,05,46,5.20
2006,04,16,05,47,5.20
2006,04,16,05,48,5.20
2006,04,16,05,49,5.20
2006,04,16,05,50,5.20
2006,04,16,05,51,5.20
2006,04,16,05,52,5.30
2006,04,16,05,53,5.20
2006,04,16,05,54,5.20
2006,04,16,05,55,5.20
2006,04,16,05,56,5.20
2006,04,16,05,57,5.20
2006,04,16,05,58,5.20
2006,04,16,05,59,5.20
2006,04,16,06,00,5.20
2006,04,16,06,01,5.20
2006,04,16,06,02,5.20
2006,04,16,06,03,5.20
2006,04,16,06,04,5.20
2006,04,16,06,05,5.20
2006,04,16,06,06,5.20
2006,04,16,06,07,5.20
2006,04,16,06,08,5.10
2006,04,16,06,09,5.10
2006,04,16,06,10,5.10
2006,04,16,06,11,5.10
2006,04,16,06,12,5.10
2006,04,16,06,13,5.10
2006,04,16,06,14,5.10
2006,04,16,06,15,5.10
2006,04,16,06,16,5.10
2006,04,16,06,17,5.00
2006,04,16,06,18,4.90
2006,04,16,06,19,4.90
2006,04,16,06,20,4.90
2006,04,16,06,21,4.90
2006,04,16,06,22,4.90
2006,04,16,06,23,4.90
2006,04,16,06,24,4.90
2006,04,16,06,25,5.00
2006,04,16,06,26,5.10
2006,04,16,06,27,5.10
2006,04,16,06,28,5.10
2006,04,16,06,29,5.10
2006,04,16,06,30,5.10
2006,04,16,06,31,5.10
2006,04,16,06,32,5.10
2006,04,16,06,33,5.10
2006,04,16,06,34,5.10
2006,04,16,06,35,5.10
2006,04,16,06,36,5.10
2006,04,16,06,37,5.10
2006,04,16,06,38,5.10
2006,04,16,06,39,5.10
2006,04,16,06,40,5.10
2006,04,16,06,41,5.10
2006,04,16,06,42,5.10
2006,04,16,06,43,5.10
2006,04,16,06,44,5.10
2006,04,16,06,45,5.10
2006,04,16,06,46,5.10
2006,04,16,06,47,5.10
2006,04,16,06,48,5.10
2006,04,16,06,49,5.10
2006,04,16,06,50,4.90
2006,04,16,06,51,4.90
2006,04,16,06,52,4.90
2006,04,16,06,53,4.90
2006,04,16,06,54,4.90
2006,04,16,06,55,4.90
2006,04,16,06,56,4.90
2006,04,16,06,57,4.90
2006,04,16,06,58,4.90
2006,04,16,06,59,4.90
2006,04,16,07,00,4.90
2006,04,16,07,01,4.90
2006,04,16,07,02,4.90
2006,04,16,07,03,4.90
2006,04,16,07,04,4.90
2006,04,16,07,05,4.90
2006,04,16,07,06,4.90
2006,04,16,07,07,4.90
2006,04,16,07,08,5.00
2006,04,16,07,09,5.10
2006,04,16,07,10,5.10
2006,04,16,07,11,5.10
2006,04,16,07,12,5.10
2006,04,16,07,13,5.10
2006,04,16,07,14,5.10
2006,04,16,07,15,5.10
2006,04,16,07,16,5.20
2006,04,16,07,17,5.20
2006,04,16,07,18,5.20
2006,04,16,07,19,5.30
2006,04,16,07,20,5.30
2006,04,16,07,21,5.30
2006,04,16,07,22,5.40
2006,04,16,07,23,5.40
2006,04,16,07,24,5.50
2006,04,16,07,25,5.50
2006,04,16,07,26,5.50
2006,04,16,07,27,5.60
2006,04,16,07,28,5.60
2006,04,16,07,29,5.60
2006,04,16,07,30,5.70
2006,04,16,07,31,5.70
2006,04,16,07,32,5.70
2006,04,16,07,33,5.70
2006,04,16,07,34,5.70
2006,04,16,07,35,5.70
2006,04,16,07,36,5.70
2006,04,16,07,37,5.70
2006,04,16,07,38,5.70
2006,04,16,07,39,5.80
2006,04,16,07,40,5.80
2006,04,16,07,41,5.80
2006,04,16,07,42,5.80
2006,04,16,07,43,5.80
2006,04,16,07,44,5.80
2006,04,16,07,45,5.80
2006,04,16,07,46,5.80
2006,04,16,07,47,5.70
2006,04,16,07,48,5.70
2006,04,16,07,49,5.70
2006,04,16,07,50,5.70
2006,04,16,07,51,5.70
2006,04,16,07,52,5.70
2006,04,16,07,53,5.70
2006,04,16,07,54,5.70
2006,04,16,07,55,5.70
2006,04,16,07,56,5.70
2006,04,16,07,57,5.60
2006,04,16,07,58,5.60
2006,04,16,07,59,5.60
2006,04,16,08,00,5.60
2006,04,16,08,01,5.60
2006,04,16,08,02,5.60
2006,04,16,08,03,5.60
2006,04,16,08,04,5.60
2006,04,16,08,05,5.60
2006,04,16,08,06,5.60
2006,04,16,08,07,5.60
2006,04,16,08,08,5.60
2006,04,16,08,09,5.60
2006,04,16,08,10,5.60
2006,04,16,08,11,5.60
2006,04,16,08,12,5.60
2006,04,16,08,13,5.70
2006,04,16,08,14,5.70
2006,04,16,08,15,5.70
2006,04,16,08,16,5.70
2006,04,16,08,17,5.80
2006,04,16,08,18,5.90
2006,04,16,08,19,6.00
2006,04,16,08,20,6.00
2006,04,16,08,21,6.00
2006,04,16,08,22,6.10
2006,04,16,08,23,6.20
2006,04,16,08,24,6.20
2006,04,16,08,25,6.20
2006,04,16,08,26,6.30
2006,04,16,08,27,6.30
2006,04,16,08,28,6.40
2006,04,16,08,29,6.40
2006,04,16,08,30,6.50
2006,04,16,08,31,6.60
2006,04,16,08,32,6.60
2006,04,16,08,33,6.60
2006,04,16,08,34,6.60
2006,04,16,08,35,6.60
2006,04,16,08,36,6.60
2006,04,16,08,37,6.60
2006,04,16,08,38,6.60
2006,04,16,08,39,6.60
2006,04,16,08,40,6.60
2006,04,16,08,41,6.60
2006,04,16,08,42,6.60
2006,04,16,08,43,6.60
2006,04,16,08,44,6.50
2006,04,16,08,45,6.40
2006,04,16,08,46,6.40
2006,04,16,08,47,6.40
2006,04,16,08,48,6.30
2006,04,16,08,49,6.30
2006,04,16,08,50,6.30
2006,04,16,08,51,6.30
2006,04,16,08,52,6.20
2006,04,16,08,53,6.20
2006,04,16,08,54,6.20
2006,04,16,08,55,6.20
2006,04,16,08,56,6.20
2006,04,16,08,57,6.20
2006,04,16,08,58,6.20
2006,04,16,08,59,6.20
2006,04,16,09,00,6.20
2006,04,16,09,01,6.20
2006,04,16,09,02,6.20
2006,04,16,09,03,6.20
2006,04,16,09,04,6.20
2006,04,16,09,05,6.20
2006,04,16,09,06,6.20
2006,04,16,09,07,6.20
2006,04,16,09,08,6.20
2006,04,16,09,09,6.20
2006,04,16,09,10,6.20
2006,04,16,09,11,6.20
2006,04,16,09,12,6.20
2006,04,16,09,13,6.20
2006,04,16,09,14,6.20
2006,04,16,09,15,6.20
2006,04,16,09,16,6.30
2006,04,16,09,17,6.30
2006,04,16,09,18,6.30
2006,04,16,09,19,6.30
2006,04,16,09,20,6.30
2006,04,16,09,21,6.30
2006,04,16,09,22,6.30
2006,04,16,09,23,6.30
2006,04,16,09,24,6.30
2006,04,16,09,25,6.30
2006,04,16,09,26,6.30
2006,04,16,09,27,6.30
2006,04,16,09,28,6.30
2006,04,16,09,29,6.30
2006,04,16,09,30,6.30
2006,04,16,09,31,6.30
2006,04,16,09,32,6.20
2006,04,16,09,33,6.20
2006,04,16,09,34,6.20
2006,04,16,09,35,6.20
2006,04,16,09,36,6.20
2006,04,16,09,37,6.20
2006,04,16,09,38,6.20
2006,04,16,09,39,6.20
2006,04,16,09,40,6.20
2006,04,16,09,41,6.20
2006,04,16,09,42,6.20
2006,04,16,09,43,6.20
2006,04,16,09,44,6.20
2006,04,16,09,45,6.20
2006,04,16,09,46,6.30
2006,04,16,09,47,6.30
2006,04,16,09,48,6.30
2006,04,16,09,49,6.40
2006,04,16,09,50,6.40
2006,04,16,09,51,6.40
2006,04,16,09,52,6.50
2006,04,16,09,53,6.60
2006,04,16,09,54,6.60
2006,04,16,09,55,6.70
2006,04,16,09,56,6.80
2006,04,16,09,57,6.90
2006,04,16,09,58,7.10
2006,04,16,09,59,7.20
2006,04,16,10,00,7.30
2006,04,16,10,01,7.30
2006,04,16,10,02,7.30
2006,04,16,10,03,7.30
2006,04,16,10,04,7.30
2006,04,16,10,05,7.30
2006,04,16,10,06,7.30
2006,04,16,10,07,7.30
2006,04,16,10,08,7.30
2006,04,16,10,09,7.40
2006,04,16,10,10,7.40
2006,04,16,10,11,7.40
2006,04,16,10,12,7.40
2006,04,16,10,13,7.40
2006,04,16,10,14,7.40
2006,04,16,10,15,7.30
2006,04,16,10,16,7.30
2006,04,16,10,17,7.30
2006,04,16,10,18,7.30
2006,04,16,10,19,7.30
2006,04,16,10,20,7.30
2006,04,16,10,21,7.30
2006,04,16,10,22,7.40
2006,04,16,10,23,7.40
2006,04,16,10,24,7.50
2006,04,16,10,25,7.60
2006,04,16,10,26,7.60
2006,04,16,10,27,7.60
2006,04,16,10,28,7.60
2006,04,16,10,29,7.60
2006,04,16,10,30,7.70
2006,04,16,10,31,7.70
2006,04,16,10,32,7.80
2006,04,16,10,33,7.70
2006,04,16,10,34,7.70
2006,04,16,10,35,7.70
2006,04,16,10,36,7.70
2006,04,16,10,37,7.70
2006,04,16,10,38,7.70
2006,04,16,10,39,7.60
2006,04,16,10,40,7.60
2006,04,16,10,41,7.60
2006,04,16,10,42,7.60
2006,04,16,10,43,7.60
2006,04,16,10,44,7.60
2006,04,16,10,45,7.60
2006,04,16,10,46,7.50
2006,04,16,10,47,7.50
2006,04,16,10,48,7.50
2006,04,16,10,49,7.50
2006,04,16,10,50,7.50
2006,04,16,10,51,7.50
2006,04,16,10,52,7.50
2006,04,16,10,53,7.50
2006,04,16,10,54,7.60
2006,04,16,10,55,7.60
2006,04,16,10,56,7.60
2006,04,16,10,57,7.60
2006,04,16,10,58,7.70
2006,04,16,10,59,7.70
2006,04,16,11,00,7.70
2006,04,16,11,01,7.70
2006,04,16,11,02,7.70
2006,04,16,11,03,7.70
2006,04,16,11,04,7.60
2006,04,16,11,05,7.70
2006,04,16,11,06,7.70
2006,04,16,11,07,7.70
2006,04,16,11,08,7.70
2006,04,16,11,09,7.60
2006,04,16,11,10,7.60
2006,04,16,11,11,7.60
2006,04,16,11,12,7.60
2006,04,16,11,13,7.60
2006,04,16,11,14,7.70
2006,04,16,11,15,7.70
2006,04,16,11,16,7.60
2006,04,16,11,17,7.60
2006,04,16,11,18,7.60
2006,04,16,11,19,7.60
2006,04,16,11,20,7.60
2006,04,16,11,21,7.70
2006,04,16,11,22,7.80
2006,04,16,11,23,7.90
2006,04,16,11,24,8.00
2006,04,16,11,25,8.10
2006,04,16,11,26,8.20
2006,04,16,11,27,8.30
2006,04,16,11,28,8.40
2006,04,16,11,29,8.50
2006,04,16,11,30,8.50
2006,04,16,11,31,8.60
2006,04,16,11,32,8.70
2006,04,16,11,33,8.70
2006,04,16,11,34,8.70
2006,04,16,11,35,8.80
2006,04,16,11,36,8.80
2006,04,16,11,37,8.90
2006,04,16,11,38,8.90
2006,04,16,11,39,9.00
2006,04,16,11,40,9.00
2006,04,16,11,41,9.20
2006,04,16,11,42,9.20
2006,04,16,11,43,9.20
2006,04,16,11,44,9.20
2006,04,16,11,45,9.20
2006,04,16,11,46,9.20
2006,04,16,11,47,9.20
2006,04,16,11,48,9.20
2006,04,16,11,49,9.20
2006,04,16,11,50,9.20
2006,04,16,11,51,9.20
2006,04,16,11,52,9.20
2006,04,16,11,53,9.20
2006,04,16,11,54,9.20
2006,04,16,11,55,9.20
2006,04,16,11,56,9.10
2006,04,16,11,57,9.10
2006,04,16,11,58,9.10
2006,04,16,11,59,9.10
2006,04,16,12,00,9.10
2006,04,16,12,01,9.20
2006,04,16,12,02,9.20
2006,04,16,12,03,9.30
2006,04,16,12,04,9.30
2006,04,16,12,05,9.50
2006,04,16,12,06,9.50
2006,04,16,12,07,9.60
2006,04,16,12,08,9.50
2006,04,16,12,09,9.50
2006,04,16,12,10,9.50
2006,04,16,12,11,9.50
2006,04,16,12,12,9.60
2006,04,16,12,13,9.60
2006,04,16,12,14,9.70
2006,04,16,12,15,9.80
2006,04,16,12,16,9.80
2006,04,16,12,17,9.90
2006,04,16,12,18,9.80
2006,04,16,12,19,9.80
2006,04,16,12,20,9.90
2006,04,16,12,21,9.90
2006,04,16,12,22,9.90
2006,04,16,12,23,9.90
2006,04,16,12,24,9.90
2006,04,16,12,25,9.90
2006,04,16,12,26,9.90
2006,04,16,12,27,9.90
2006,04,16,12,28,9.90
2006,04,16,12,29,9.90
2006,04,16,12,30,9.90
2006,04,16,12,31,9.90
2006,04,16,12,32,9.90
2006,04,16,12,33,9.80
2006,04,16,12,34,9.80
2006,04,16,12,35,9.70
2006,04,16,12,36,9.70
2006,04,16,12,37,9.70
2006,04,16,12,38,9.50
2006,04,16,12,39,9.50
2006,04,16,12,40,9.60
2006,04,16,12,41,9.60
2006,04,16,12,42,9.70
2006,04,16,12,43,9.70
2006,04,16,12,44,9.80
2006,04,16,12,45,9.80
2006,04,16,12,46,9.80
2006,04,16,12,47,9.80
2006,04,16,12,48,9.80
2006,04,16,12,49,9.80
2006,04,16,12,50,9.90
2006,04,16,12,51,9.90
2006,04,16,12,52,9.90
2006,04,16,12,53,10.00
2006,04,16,12,54,10.10
2006,04,16,12,55,10.20
2006,04,16,12,56,10.30
2006,04,16,12,57,10.40
2006,04,16,12,58,10.40
2006,04,16,12,59,10.40
2006,04,16,13,00,10.40
2006,04,16,13,01,10.40
2006,04,16,13,02,10.50
2006,04,16,13,03,10.40
2006,04,16,13,04,10.40
2006,04,16,13,05,10.40
2006,04,16,13,06,10.20
2006,04,16,13,07,10.00
2006,04,16,13,08,9.80
2006,04,16,13,09,9.60
2006,04,16,13,10,9.40
2006,04,16,13,11,9.30
2006,04,16,13,12,9.30
2006,04,16,13,13,9.30
2006,04,16,13,14,9.30
2006,04,16,13,15,9.20
2006,04,16,13,16,9.30
2006,04,16,13,17,9.30
2006,04,16,13,18,9.30
2006,04,16,13,19,9.40
2006,04,16,13,20,9.40
2006,04,16,13,21,9.30
2006,04,16,13,22,9.20
2006,04,16,13,23,9.20
2006,04,16,13,24,9.20
2006,04,16,13,25,9.30
2006,04,16,13,26,9.40
2006,04,16,13,27,9.50
2006,04,16,13,28,9.50
2006,04,16,13,29,9.50
2006,04,16,13,30,9.50
2006,04,16,13,31,9.50
2006,04,16,13,32,9.70
2006,04,16,13,33,9.80
2006,04,16,13,34,10.00
2006,04,16,13,35,10.20
2006,04,16,13,36,10.30
2006,04,16,13,37,10.40
2006,04,16,13,38,10.60
2006,04,16,13,39,10.70
2006,04,16,13,40,10.80
2006,04,16,13,41,10.90
2006,04,16,13,42,10.90
2006,04,16,13,43,10.90
2006,04,16,13,44,10.90
2006,04,16,13,45,10.80
2006,04,16,13,46,10.80
2006,04,16,13,47,10.70
2006,04,16,13,48,10.70
2006,04,16,13,49,10.60
2006,04,16,13,50,10.50
2006,04,16,13,51,10.40
2006,04,16,13,52,10.40
2006,04,16,13,53,10.40
2006,04,16,13,54,10.50
2006,04,16,13,55,10.60
2006,04,16,13,56,10.60
2006,04,16,13,57,10.60
2006,04,16,13,58,10.60
2006,04,16,13,59,10.70
2006,04,16,14,00,10.70
2006,04,16,14,01,10.80
2006,04,16,14,02,10.90
2006,04,16,14,03,10.90
2006,04,16,14,04,11.00
2006,04,16,14,05,11.10
2006,04,16,14,06,11.10
2006,04,16,14,07,11.20
2006,04,16,14,08,11.30
2006,04,16,14,09,11.30
2006,04,16,14,10,11.40
2006,04,16,14,11,11.30
2006,04,16,14,12,11.30
2006,04,16,14,13,11.30
2006,04,16,14,14,11.40
2006,04,16,14,15,11.50
2006,04,16,14,16,11.60
2006,04,16,14,17,11.70
2006,04,16,14,18,11.80
2006,04,16,14,19,11.80
2006,04,16,14,20,11.90
2006,04,16,14,21,11.90
2006,04,16,14,22,12.00
2006,04,16,14,23,12.00
2006,04,16,14,24,12.10
2006,04,16,14,25,12.10
2006,04,16,14,26,12.20
2006,04,16,14,27,12.10
2006,04,16,14,28,12.10
2006,04,16,14,29,12.10
2006,04,16,14,30,12.20
2006,04,16,14,31,12.30
2006,04,16,14,32,12.30
2006,04,16,14,33,12.30
2006,04,16,14,34,12.30
2006,04,16,14,35,12.10
2006,04,16,14,36,12.00
2006,04,16,14,37,11.80
2006,04,16,14,38,11.60
2006,04,16,14,39,11.60
2006,04,16,14,40,11.60
2006,04,16,14,41,11.60
2006,04,16,14,42,11.60
2006,04,16,14,43,11.60
2006,04,16,14,44,11.60
2006,04,16,14,45,11.50
2006,04,16,14,46,11.40
2006,04,16,14,47,11.30
2006,04,16,14,48,11.20
2006,04,16,14,49,11.10
2006,04,16,14,50,11.10
2006,04,16,14,51,11.10
2006,04,16,14,52,10.90
2006,04,16,14,53,10.90
2006,04,16,14,54,10.90
2006,04,16,14,55,10.80
2006,04,16,14,56,10.70
2006,04,16,14,57,10.80
2006,04,16,14,58,10.90
2006,04,16,14,59,10.90
2006,04,16,15,00,11.10
2006,04,16,15,01,11.00
2006,04,16,15,02,10.90
2006,04,16,15,03,10.90
2006,04,16,15,04,10.90
2006,04,16,15,05,10.90
2006,04,16,15,06,10.90
2006,04,16,15,07,11.00
2006,04,16,15,08,11.10
2006,04,16,15,09,11.10
2006,04,16,15,10,11.20
2006,04,16,15,11,11.30
2006,04,16,15,12,11.30
2006,04,16,15,13,11.30
2006,04,16,15,14,11.40
2006,04,16,15,15,11.50
2006,04,16,15,16,11.50
2006,04,16,15,17,11.40
2006,04,16,15,18,11.40
2006,04,16,15,19,11.40
2006,04,16,15,20,11.30
2006,04,16,15,21,11.30
2006,04,16,15,22,11.30
2006,04,16,15,23,11.30
2006,04,16,15,24,11.30
2006,04,16,15,25,11.30
2006,04,16,15,26,11.30
2006,04,16,15,27,11.30
2006,04,16,15,28,11.30
2006,04,16,15,29,11.40
2006,04,16,15,30,11.30
2006,04,16,15,31,11.30
2006,04,16,15,32,11.30
2006,04,16,15,33,11.30
2006,04,16,15,34,11.30
2006,04,16,15,35,11.40
2006,04,16,15,36,11.40
2006,04,16,15,37,11.40
2006,04,16,15,38,11.40
2006,04,16,15,39,11.40
2006,04,16,15,40,11.40
2006,04,16,15,41,11.40
2006,04,16,15,42,11.40
2006,04,16,15,43,11.30
2006,04,16,15,44,11.30
2006,04,16,15,45,11.30
2006,04,16,15,46,11.30
2006,04,16,15,47,11.20
2006,04,16,15,48,11.20
2006,04,16,15,49,11.20
2006,04,16,15,50,11.10
2006,04,16,15,51,11.10
2006,04,16,15,52,11.10
2006,04,16,15,53,11.10
2006,04,16,15,54,11.10
2006,04,16,15,55,11.10
2006,04,16,15,56,11.10
2006,04,16,15,57,11.10
2006,04,16,15,58,11.10
2006,04,16,15,59,11.10
2006,04,16,16,00,11.10
2006,04,16,16,01,11.20
2006,04,16,16,02,11.30
2006,04,16,16,03,11.40
2006,04,16,16,04,11.40
2006,04,16,16,05,11.40
2006,04,16,16,06,11.60
2006,04,16,16,07,11.40
2006,04,16,16,08,11.40
2006,04,16,16,09,11.40
2006,04,16,16,10,11.40
2006,04,16,16,11,11.40
2006,04,16,16,12,11.30
2006,04,16,16,13,11.20
2006,04,16,16,14,11.10
2006,04,16,16,15,10.90
2006,04,16,16,16,10.80
2006,04,16,16,17,10.80
2006,04,16,16,18,10.80
2006,04,16,16,19,10.80
2006,04,16,16,20,10.80
2006,04,16,16,21,10.70
2006,04,16,16,22,10.70
2006,04,16,16,23,10.70
2006,04,16,16,24,10.70
2006,04,16,16,25,10.70
2006,04,16,16,26,10.70
2006,04,16,16,27,10.70
2006,04,16,16,28,10.70
2006,04,16,16,29,10.70
2006,04,16,16,30,10.70
2006,04,16,16,31,10.70
2006,04,16,16,32,10.70
2006,04,16,16,33,10.60
2006,04,16,16,34,10.60
2006,04,16,16,35,10.60
2006,04,16,16,36,10.60
2006,04,16,16,37,10.70
2006,04,16,16,38,10.70
2006,04,16,16,39,10.80
2006,04,16,16,40,10.80
2006,04,16,16,41,10.90
2006,04,16,16,42,10.90
2006,04,16,16,43,10.90
2006,04,16,16,44,11.10
2006,04,16,16,45,11.10
2006,04,16,16,46,11.10
2006,04,16,16,47,11.10
2006,04,16,16,48,11.10
2006,04,16,16,49,11.10
2006,04,16,16,50,11.00
2006,04,16,16,51,11.00
2006,04,16,16,52,11.00
2006,04,16,16,53,11.10
2006,04,16,16,54,11.10
2006,04,16,16,55,11.10
2006,04,16,16,56,11.10
2006,04,16,16,57,11.10
2006,04,16,16,58,11.20
2006,04,16,16,59,11.10
2006,04,16,17,00,11.10
2006,04,16,17,01,11.10
2006,04,16,17,02,11.10
2006,04,16,17,03,11.10
2006,04,16,17,04,11.20
2006,04,16,17,05,11.20
2006,04,16,17,06,11.30
2006,04,16,17,07,11.30
2006,04,16,17,08,11.30
2006,04,16,17,09,11.30
2006,04,16,17,10,11.20
2006,04,16,17,11,11.20
2006,04,16,17,12,11.10
2006,04,16,17,13,11.00
2006,04,16,17,14,10.90
2006,04,16,17,15,10.90
2006,04,16,17,16,10.80
2006,04,16,17,17,10.70
2006,04,16,17,18,10.70
2006,04,16,17,19,10.70
2006,04,16,17,20,10.60
2006,04,16,17,21,10.60
2006,04,16,17,22,10.60
2006,04,16,17,23,10.60
2006,04,16,17,24,10.60
2006,04,16,17,25,10.50
2006,04,16,17,26,10.40
2006,04,16,17,27,10.40
2006,04,16,17,28,10.30
2006,04,16,17,29,10.20
2006,04,16,17,30,10.20
2006,04,16,17,31,10.20
2006,04,16,17,32,10.20
2006,04,16,17,33,10.10
2006,04,16,17,34,10.10
2006,04,16,17,35,10.10
2006,04,16,17,36,10.10
2006,04,16,17,37,10.10
2006,04,16,17,38,10.10
2006,04,16,17,39,10.10
2006,04,16,17,40,10.10
2006,04,16,17,41,10.10
2006,04,16,17,42,10.10
2006,04,16,17,43,10.10
2006,04,16,17,44,10.10
2006,04,16,17,45,10.00
2006,04,16,17,46,9.90
2006,04,16,17,47,9.90
2006,04,16,17,48,9.90
2006,04,16,17,49,9.90
2006,04,16,17,50,9.90
2006,04,16,17,51,9.90
2006,04,16,17,52,9.90
2006,04,16,17,53,9.90
2006,04,16,17,54,9.90